Location: Moscow Pond
(43.6842°N, 73.2366°W)
Time: 02:25:24
(UTC+00:00)

Cosmos 921 Rocket - Pass Details

Date: 08 November 2025
Orbit: 563 x 621 km, 75.8° (Epoch: 04 December)

Event Time Altitude Azimuth Distance (km) Brightness Sun altitude
Exits shadow 10:06:54 23° 237° (WSW) 1,323 4.3 -16.8°
Drops below altitude 10° 10:09:25 10° 206° (SSW) 1,980 5.5 -16.3°
Sets 10:11:55 0° 194° (SSW) 2,875 6.4 -15.9°
